Hourly Data Report for October 08, 2016

All times are specified in Local Standard Time (LST). Add 1 hour to adjust for Daylight Saving Time where and when it is observed.

SAINT JOHN A
NEW BRUNSWICK

45°18'58.000" N
65°53'24.000" W
108.80 m
8104901
71609
YSJ

Download Data

Hourly Data (October 2016)
Hourly Data Report for October 8, 2016
Temp Definition
°C
Dew Point Temp Definition
°C
Rel Hum Definition
%
Wind Dir Definition
10's deg

Wind Spd Definition
km/h
Visibility Definition
km
Stn Press Definition
kPa
Hmdx Definition


Wind Chill Definition


Weather Definition


TIME
00:00 Legend Double Dagger 5.6 5.6 100 36 3 24.1 101.01     LegendNANA
01:00 Legend Double Dagger 6.0 6.0 100 5 5 24.1 101.00     LegendNANA
02:00 Legend Double Dagger 5.4 5.4 100 3 4 24.1 100.93     Clear
03:00 Legend Double Dagger 3.3 3.3 100 36 2 24.1 100.88     LegendNANA
04:00 Legend Double Dagger 2.7 2.7 100 0 1 4.8 100.87     Fog
05:00 Legend Double Dagger 4.3 4.3 100 4 3 24.1 100.89     Mainly Clear
06:00 Legend Double Dagger 1.8 1.8 100   0 0.8 100.88     Fog
07:00 Legend Double Dagger 3.0 3.0 100 36 1 0.2 100.93     Fog
08:00 Legend Double Dagger 8.1 8.1 100 36 2 0.0 100.95     Fog
09:00 Legend Double Dagger 13.3 13.3 100 16 10 9.7 100.95     Fog
10:00 Legend Double Dagger 17.2 12.6 74 19 21 24.1 100.95     LegendNANA
11:00 Legend Double Dagger 17.6 12.4 71 20 21 24.1 100.89     Mostly Cloudy
12:00 Legend Double Dagger 17.9 12.2 69 21 22 24.1 100.85     LegendNANA
13:00 Legend Double Dagger 18.2 12.1 67 20 28 24.1 100.79     LegendNANA
14:00 Legend Double Dagger 18.2 11.8 66 20 26 24.1 100.69     Mostly Cloudy
15:00 Legend Double Dagger 16.4 11.2 71 21 27 24.1 100.66     LegendNANA
16:00 Legend Double Dagger 15.8 11.6 76 22 18 24.1 100.65     LegendNANA
17:00 Legend Double Dagger 15.3 11.9 80 20 17 24.1 100.58     Cloudy
18:00 Legend Double Dagger 13.7 12.1 90 19 17 24.1 100.53     LegendNANA
19:00 Legend Double Dagger 13.4 12.5 94 19 16 24.1 100.48     LegendNANA
20:00 Legend Double Dagger 14.0 13.4 96 20 22 24.1 100.48     Cloudy
21:00 Legend Double Dagger 14.0 13.5 97 20 18 24.1 100.48     LegendNANA
22:00 Legend Double Dagger 14.2 14.2 100 21 19 19.3 100.49     LegendNANA
23:00 Legend Double Dagger 14.7 14.7 100 19 21 16.1 100.43     Cloudy

Notes on Data Quality.

Legend

  • E = Estimated
  • M = Missing
  • NA = Not Available
  • ‡ = Partner data that is not subject to review by the National Climate Archives
Date modified: